Time,TemperatureF,DewpointF,PressureIn,WindDirection,WindDirectionDegrees,WindSpeedMPH,WindSpeedGustMPH,Humidity,HourlyPrecipIn,Conditions,Clouds,dailyrainin,SolarRadiationWatts/m^2,SoftwareType,DateUTC
2013-04-16 00:00:00,55.8,53.8,30.16,ENE,77,0.0,3.0,93,0.00,,,0.39,0.0,meteohub,2013-04-16 04:00:00,
2013-04-16 00:01:00,55.8,53.8,30.16,ENE,77,0.0,3.0,93,0.00,,,0.39,0.0,meteohub,2013-04-16 04:01:00,
2013-04-16 00:06:00,55.8,53.8,30.16,ENE,77,0.0,3.0,93,0.00,,,0.00,0.0,meteohub,2013-04-16 04:06:00,
2013-04-16 00:11:00,55.8,53.8,30.17,ENE,77,0.0,3.0,93,0.00,,,0.00,0.0,meteohub,2013-04-16 04:11:00,
2013-04-16 00:16:00,55.8,53.8,30.17,ENE,77,0.0,0.0,93,0.00,,,0.00,0.0,meteohub,2013-04-16 04:16:00,
2013-04-16 00:21:00,55.8,53.8,30.17,ENE,77,0.0,0.0,93,0.00,,,0.00,0.0,meteohub,2013-04-16 04:21:00,
2013-04-16 00:26:00,55.8,53.8,30.17,ENE,77,0.0,0.0,93,0.00,,,0.00,0.0,meteohub,2013-04-16 04:26:00,
2013-04-16 00:31:00,55.8,53.8,30.17,ENE,77,0.0,0.0,93,0.00,,,0.00,0.0,meteohub,2013-04-16 04:31:00,
2013-04-16 00:36:00,55.8,54.1,30.16,ENE,77,0.0,0.0,94,0.00,,,0.00,0.0,meteohub,2013-04-16 04:36:00,
2013-04-16 00:41:00,55.8,54.1,30.16,ENE,77,0.0,1.0,94,0.00,,,0.00,0.0,meteohub,2013-04-16 04:41:00,
2013-04-16 00:47:00,55.8,54.1,30.17,ENE,77,0.0,1.0,94,0.00,,,0.00,0.0,meteohub,2013-04-16 04:47:00,
2013-04-16 00:52:00,55.8,54.1,30.17,ENE,77,0.0,1.0,94,0.00,,,0.00,0.0,meteohub,2013-04-16 04:52:00,
2013-04-16 00:57:00,55.8,54.1,30.17,ENE,77,0.0,1.0,94,0.00,,,0.00,0.0,meteohub,2013-04-16 04:57:00,
2013-04-16 01:02:00,55.8,54.1,30.16,ENE,77,0.0,2.0,94,0.00,,,0.00,0.0,meteohub,2013-04-16 05:02:00,
2013-04-16 01:07:00,55.8,54.1,30.17,ENE,77,0.0,2.0,94,0.00,,,0.00,0.0,meteohub,2013-04-16 05:07:00,
2013-04-16 01:12:00,55.6,54.0,30.16,ENE,77,0.0,2.0,94,0.00,,,0.00,0.0,meteohub,2013-04-16 05:12:00,
2013-04-16 01:17:00,55.8,54.1,30.16,ENE,77,0.0,0.0,94,0.00,,,0.00,0.0,meteohub,2013-04-16 05:17:00,
2013-04-16 01:22:00,55.6,54.0,30.16,ENE,77,0.0,0.0,94,0.00,,,0.00,0.0,meteohub,2013-04-16 05:22:00,
2013-04-16 01:27:00,55.8,54.1,30.16,ENE,77,0.0,0.0,94,0.00,,,0.00,0.0,meteohub,2013-04-16 05:27:00,
2013-04-16 01:32:00,55.8,54.1,30.17,ENE,77,0.0,0.0,94,0.00,,,0.00,0.0,meteohub,2013-04-16 05:32:00,
2013-04-16 01:37:00,55.8,54.1,30.17,ENE,77,0.0,0.0,94,0.00,,,0.00,0.0,meteohub,2013-04-16 05:37:00,
2013-04-16 01:42:00,55.8,54.1,30.17,ENE,77,0.0,0.0,94,0.00,,,0.00,0.0,meteohub,2013-04-16 05:42:00,
2013-04-16 01:47:00,55.8,54.1,30.16,ENE,77,0.0,0.0,94,0.00,,,0.00,0.0,meteohub,2013-04-16 05:47:00,
2013-04-16 01:52:00,55.8,54.1,30.17,ENE,77,0.0,2.0,94,0.00,,,0.00,0.0,meteohub,2013-04-16 05:52:00,
2013-04-16 01:57:00,55.8,54.1,30.16,ENE,77,0.0,2.0,94,0.00,,,0.00,0.0,meteohub,2013-04-16 05:57:00,
2013-04-16 02:02:00,55.8,54.1,30.16,ENE,77,0.0,2.0,94,0.00,,,0.00,0.0,meteohub,2013-04-16 06:02:00,
2013-04-16 02:08:00,55.8,54.1,30.16,ENE,77,0.0,0.0,94,0.00,,,0.00,0.0,meteohub,2013-04-16 06:08:00,
2013-04-16 02:13:00,55.6,54.0,30.17,ENE,77,0.0,0.0,94,0.00,,,0.00,0.0,meteohub,2013-04-16 06:13:00,
2013-04-16 02:18:00,55.8,54.1,30.17,ENE,77,0.0,0.0,94,0.00,,,0.00,0.0,meteohub,2013-04-16 06:18:00,
2013-04-16 02:23:00,55.8,54.1,30.17,ENE,77,0.0,0.0,94,0.00,,,0.00,0.0,meteohub,2013-04-16 06:23:00,
2013-04-16 02:28:00,55.8,54.1,30.17,ENE,77,0.0,0.0,94,0.00,,,0.00,0.0,meteohub,2013-04-16 06:28:00,
2013-04-16 02:33:00,55.8,54.1,30.17,ENE,77,0.0,0.0,94,0.00,,,0.00,0.0,meteohub,2013-04-16 06:33:00,
2013-04-16 02:38:00,55.6,54.0,30.17,ENE,77,0.0,1.0,94,0.00,,,0.00,0.0,meteohub,2013-04-16 06:38:00,
2013-04-16 02:43:00,55.6,54.0,30.16,ENE,77,0.0,1.0,94,0.00,,,0.00,0.0,meteohub,2013-04-16 06:43:00,
2013-04-16 02:48:00,55.6,54.0,30.16,ENE,77,0.0,1.0,94,0.00,,,0.00,0.0,meteohub,2013-04-16 06:48:00,
2013-04-16 02:53:00,55.6,54.0,30.16,ENE,77,0.0,0.0,94,0.00,,,0.00,0.0,meteohub,2013-04-16 06:53:00,
2013-04-16 02:58:00,55.6,54.0,30.16,ENE,77,0.0,1.0,94,0.00,,,0.00,0.0,meteohub,2013-04-16 06:58:00,
2013-04-16 03:03:00,55.6,54.0,30.16,ENE,77,0.0,1.0,94,0.00,,,0.00,0.0,meteohub,2013-04-16 07:03:00,
2013-04-16 03:09:00,55.6,54.0,30.16,ENE,77,0.0,1.0,94,0.00,,,0.00,0.0,meteohub,2013-04-16 07:09:00,
2013-04-16 03:14:00,55.6,54.0,30.16,ENE,77,0.0,1.0,94,0.00,,,0.00,0.0,meteohub,2013-04-16 07:14:00,
2013-04-16 03:19:00,55.6,54.0,30.16,SE,142,0.0,0.0,94,0.00,,,0.00,0.0,meteohub,2013-04-16 07:19:00,
2013-04-16 03:24:00,55.6,54.0,30.16,SE,138,0.0,3.0,94,0.00,,,0.00,0.0,meteohub,2013-04-16 07:24:00,
2013-04-16 03:29:00,55.6,54.1,30.16,SE,138,0.0,3.0,95,0.00,,,0.00,0.0,meteohub,2013-04-16 07:29:00,
2013-04-16 03:34:00,55.6,54.0,30.16,SE,138,0.0,3.0,94,0.00,,,0.00,0.0,meteohub,2013-04-16 07:34:00,
2013-04-16 03:39:00,55.6,54.0,30.16,SE,138,0.0,3.0,94,0.00,,,0.00,0.0,meteohub,2013-04-16 07:39:00,
2013-04-16 03:44:00,55.6,54.0,30.15,SE,138,0.0,2.0,94,0.00,,,0.00,0.0,meteohub,2013-04-16 07:44:00,
2013-04-16 03:49:00,55.6,54.1,30.16,SE,138,0.0,2.0,95,0.00,,,0.00,0.0,meteohub,2013-04-16 07:49:00,
2013-04-16 03:54:00,55.6,54.1,30.16,SE,138,1.0,2.0,95,0.00,,,0.00,0.0,meteohub,2013-04-16 07:54:00,
2013-04-16 03:59:00,55.6,54.1,30.16,SE,138,0.0,2.0,95,0.00,,,0.00,0.0,meteohub,2013-04-16 07:59:00,
2013-04-16 04:04:00,55.6,54.1,30.16,SE,138,0.0,2.0,95,0.00,,,0.00,0.0,meteohub,2013-04-16 08:04:00,
2013-04-16 04:09:00,55.6,54.1,30.16,SE,138,0.0,2.0,95,0.00,,,0.00,0.0,meteohub,2013-04-16 08:09:00,
2013-04-16 04:14:00,55.6,54.1,30.16,SE,138,0.0,1.0,95,0.00,,,0.00,0.0,meteohub,2013-04-16 08:14:00,
2013-04-16 04:19:00,55.6,54.1,30.16,SE,138,0.0,2.0,95,0.00,,,0.00,0.0,meteohub,2013-04-16 08:19:00,
2013-04-16 04:24:00,55.6,54.1,30.16,SE,138,1.0,2.0,95,0.00,,,0.00,0.0,meteohub,2013-04-16 08:24:00,
2013-04-16 04:30:00,55.6,54.1,30.16,SE,138,0.0,1.0,95,0.00,,,0.00,0.0,meteohub,2013-04-16 08:30:00,
2013-04-16 04:35:00,55.6,54.1,30.16,SE,138,0.0,1.0,95,0.00,,,0.00,0.0,meteohub,2013-04-16 08:35:00,
2013-04-16 04:40:00,55.6,54.5,30.16,SE,138,1.0,2.0,96,0.00,,,0.00,0.0,meteohub,2013-04-16 08:40:00,
2013-04-16 04:45:00,55.6,54.5,30.16,SE,142,1.0,2.0,96,0.00,,,0.00,0.0,meteohub,2013-04-16 08:45:00,
2013-04-16 04:50:00,55.6,54.5,30.16,SE,144,0.0,2.0,96,0.00,,,0.00,0.0,meteohub,2013-04-16 08:50:00,
2013-04-16 04:55:00,55.4,54.3,30.16,SE,144,0.0,2.0,96,0.00,,,0.00,0.0,meteohub,2013-04-16 08:55:00,
2013-04-16 05:00:00,55.4,54.3,30.16,SE,144,0.0,2.0,96,0.00,,,0.00,0.0,meteohub,2013-04-16 09:00:00,
2013-04-16 05:05:00,55.4,54.3,30.16,SE,144,0.0,2.0,96,0.00,,,0.00,0.0,meteohub,2013-04-16 09:05:00,
2013-04-16 05:10:00,55.4,54.3,30.15,SE,144,0.0,1.0,96,0.00,,,0.00,0.0,meteohub,2013-04-16 09:10:00,
2013-04-16 05:15:00,55.4,54.3,30.15,SE,144,0.0,2.0,96,0.00,,,0.00,0.0,meteohub,2013-04-16 09:15:00,
2013-04-16 05:20:00,55.4,54.3,30.15,SE,145,0.0,2.0,96,0.00,,,0.00,0.0,meteohub,2013-04-16 09:20:00,
2013-04-16 05:25:00,55.4,54.3,30.15,SE,145,0.0,2.0,96,0.00,,,0.00,0.0,meteohub,2013-04-16 09:25:00,
2013-04-16 05:30:00,55.4,54.3,30.15,SSE,165,2.0,2.0,96,0.00,,,0.00,0.0,meteohub,2013-04-16 09:30:00,
2013-04-16 05:35:00,55.4,54.3,30.15,SSE,165,0.0,3.0,96,0.00,,,0.00,0.0,meteohub,2013-04-16 09:35:00,
2013-04-16 05:41:00,55.4,54.3,30.15,SSE,165,0.0,3.0,96,0.00,,,0.00,0.0,meteohub,2013-04-16 09:41:00,
2013-04-16 05:46:00,55.4,54.3,30.15,SSE,165,0.0,3.0,96,0.00,,,0.00,0.0,meteohub,2013-04-16 09:46:00,
2013-04-16 05:51:00,55.4,54.3,30.15,SSE,165,0.0,2.0,96,0.00,,,0.00,0.0,meteohub,2013-04-16 09:51:00,
2013-04-16 05:56:00,55.4,54.3,30.15,WSW,241,1.0,2.0,96,0.00,,,0.00,0.0,meteohub,2013-04-16 09:56:00,
2013-04-16 06:01:00,55.4,54.5,30.15,South,176,1.0,3.0,97,0.00,,,0.00,0.0,meteohub,2013-04-16 10:01:00,
2013-04-16 06:06:00,55.4,54.5,30.15,SSW,196,2.0,3.0,97,0.00,,,0.00,0.0,meteohub,2013-04-16 10:06:00,
2013-04-16 06:11:00,55.4,54.5,30.15,South,188,0.0,3.0,97,0.00,,,0.00,0.0,meteohub,2013-04-16 10:11:00,
2013-04-16 06:16:00,55.4,54.5,30.15,South,188,0.0,4.0,97,0.00,,,0.00,0.0,meteohub,2013-04-16 10:16:00,
2013-04-16 06:21:00,55.4,54.5,30.15,SE,143,0.0,4.0,97,0.00,,,0.00,0.0,meteohub,2013-04-16 10:21:00,
2013-04-16 06:26:00,55.2,54.3,30.16,SSW,194,2.0,3.0,97,0.00,,,0.00,0.0,meteohub,2013-04-16 10:26:00,
2013-04-16 06:31:00,55.2,54.3,30.16,SSW,194,0.0,3.0,97,0.00,,,0.00,0.0,meteohub,2013-04-16 10:31:00,
2013-04-16 06:37:00,55.2,54.3,30.16,SSW,194,0.0,2.0,97,0.00,,,0.00,0.0,meteohub,2013-04-16 10:37:00,
2013-04-16 06:42:00,55.2,54.3,30.17,SSW,194,0.0,2.0,97,0.00,,,0.00,0.0,meteohub,2013-04-16 10:42:00,
2013-04-16 06:47:00,55.2,54.3,30.17,SSW,200,0.0,3.0,97,0.00,,,0.00,0.0,meteohub,2013-04-16 10:47:00,
2013-04-16 06:52:00,55.2,54.3,30.17,SE,142,0.0,3.0,97,0.00,,,0.00,0.0,meteohub,2013-04-16 10:52:00,
2013-04-16 06:57:00,55.2,54.3,30.18,SE,142,0.0,3.0,97,0.00,,,0.00,0.0,meteohub,2013-04-16 10:57:00,
2013-04-16 07:02:00,55.2,54.3,30.18,SE,145,1.0,2.0,97,0.00,,,0.00,0.0,meteohub,2013-04-16 11:02:00,
2013-04-16 07:07:00,55.2,54.3,30.18,SSW,209,0.0,2.0,97,0.00,,,0.00,0.0,meteohub,2013-04-16 11:07:00,
2013-04-16 07:12:00,55.2,54.3,30.18,South,171,0.0,3.0,97,0.00,,,0.00,0.0,meteohub,2013-04-16 11:12:00,
2013-04-16 07:17:00,55.2,54.3,30.18,South,171,0.0,3.0,97,0.00,,,0.00,0.0,meteohub,2013-04-16 11:17:00,
2013-04-16 07:22:00,55.2,54.3,30.19,South,171,1.0,3.0,97,0.00,,,0.00,0.0,meteohub,2013-04-16 11:22:00,
2013-04-16 07:27:00,55.2,54.3,30.19,SSW,207,1.0,2.0,97,0.01,,,0.01,0.0,meteohub,2013-04-16 11:27:00,
2013-04-16 07:32:00,55.2,54.3,30.19,SSW,207,1.0,2.0,97,0.01,,,0.01,0.0,meteohub,2013-04-16 11:32:00,
2013-04-16 07:37:00,55.2,54.3,30.19,SSW,207,0.0,2.0,97,0.01,,,0.01,0.0,meteohub,2013-04-16 11:37:00,
2013-04-16 07:42:00,55.2,54.3,30.19,SSW,207,2.0,2.0,97,0.01,,,0.01,0.0,meteohub,2013-04-16 11:42:00,
2013-04-16 07:48:00,55.4,54.5,30.19,South,169,0.0,2.0,97,0.01,,,0.01,0.0,meteohub,2013-04-16 11:48:00,
2013-04-16 07:53:00,55.2,54.3,30.20,SW,221,0.0,2.0,97,0.01,,,0.01,5.0,meteohub,2013-04-16 11:53:00,
2013-04-16 07:58:00,55.2,54.3,30.20,SW,219,0.0,3.0,97,0.02,,,0.02,9.0,meteohub,2013-04-16 11:58:00,
2013-04-16 08:03:00,55.2,54.3,30.21,SSW,209,2.0,3.0,97,0.02,,,0.02,11.0,meteohub,2013-04-16 12:03:00,
2013-04-16 08:08:00,55.2,54.3,30.21,SSW,209,0.0,3.0,97,0.02,,,0.02,9.0,meteohub,2013-04-16 12:08:00,
2013-04-16 08:13:00,55.2,54.3,30.21,SSW,209,0.0,3.0,97,0.02,,,0.02,9.0,meteohub,2013-04-16 12:13:00,
2013-04-16 08:18:00,55.2,54.3,30.21,SSW,209,0.0,3.0,97,0.02,,,0.02,16.0,meteohub,2013-04-16 12:18:00,
2013-04-16 08:23:00,55.4,54.5,30.21,SSW,211,0.0,3.0,97,0.02,,,0.02,16.0,meteohub,2013-04-16 12:23:00,
2013-04-16 08:28:00,55.4,54.5,30.21,SSW,209,0.0,3.0,97,0.01,,,0.02,18.0,meteohub,2013-04-16 12:28:00,
2013-04-16 08:33:00,55.4,54.5,30.22,SSW,209,0.0,3.0,97,0.01,,,0.02,23.0,meteohub,2013-04-16 12:33:00,
2013-04-16 08:38:00,55.6,54.7,30.22,SSW,209,1.0,3.0,97,0.01,,,0.02,33.0,meteohub,2013-04-16 12:38:00,
2013-04-16 08:43:00,55.6,54.7,30.22,WSW,244,0.0,2.0,97,0.01,,,0.02,28.0,meteohub,2013-04-16 12:43:00,
2013-04-16 08:48:00,55.6,54.7,30.22,SSW,203,0.0,3.0,97,0.01,,,0.02,37.0,meteohub,2013-04-16 12:48:00,
2013-04-16 08:53:00,55.6,54.7,30.22,SSW,203,0.0,3.0,97,0.01,,,0.02,33.0,meteohub,2013-04-16 12:53:00,
2013-04-16 08:58:00,55.6,54.7,30.22,SSW,203,0.0,3.0,97,0.00,,,0.02,25.0,meteohub,2013-04-16 12:58:00,
2013-04-16 09:03:00,55.8,54.9,30.22,SSW,203,1.0,3.0,97,0.00,,,0.02,39.0,meteohub,2013-04-16 13:03:00,
2013-04-16 09:08:00,55.8,54.9,30.22,SSW,203,0.0,2.0,97,0.00,,,0.02,58.0,meteohub,2013-04-16 13:08:00,
2013-04-16 09:13:00,55.8,54.9,30.22,SSW,203,0.0,2.0,97,0.00,,,0.02,79.0,meteohub,2013-04-16 13:13:00,
2013-04-16 09:18:00,55.9,55.4,30.22,SSW,207,2.0,2.0,98,0.00,,,0.02,107.0,meteohub,2013-04-16 13:18:00,
2013-04-16 09:23:00,56.1,55.6,30.22,SSW,209,1.0,2.0,98,0.00,,,0.02,118.0,meteohub,2013-04-16 13:23:00,
2013-04-16 09:28:00,56.1,55.6,30.22,SSW,209,1.0,2.0,98,0.00,,,0.02,118.0,meteohub,2013-04-16 13:28:00,
2013-04-16 09:33:00,56.3,55.8,30.22,SSW,209,0.0,2.0,98,0.00,,,0.02,125.0,meteohub,2013-04-16 13:33:00,
2013-04-16 09:38:00,56.5,55.9,30.22,NNW,331,2.0,2.0,98,0.00,,,0.02,148.0,meteohub,2013-04-16 13:38:00,
2013-04-16 09:43:00,56.7,56.1,30.22,NW,325,0.0,2.0,98,0.00,,,0.02,221.0,meteohub,2013-04-16 13:43:00,
2013-04-16 09:48:00,57.0,56.5,30.22,WSW,244,0.0,2.0,98,0.00,,,0.02,332.0,meteohub,2013-04-16 13:48:00,
2013-04-16 09:53:00,57.7,57.2,30.22,WSW,242,0.0,2.0,98,0.00,,,0.02,220.0,meteohub,2013-04-16 13:53:00,
2013-04-16 09:59:00,58.3,57.7,30.22,SW,233,1.0,2.0,98,0.00,,,0.02,221.0,meteohub,2013-04-16 13:59:00,
2013-04-16 10:04:00,58.5,57.9,30.22,SW,233,0.0,3.0,98,0.00,,,0.02,236.0,meteohub,2013-04-16 14:04:00,
2013-04-16 10:09:00,58.6,58.1,30.22,SW,232,0.0,3.0,98,0.00,,,0.02,265.0,meteohub,2013-04-16 14:09:00,
2013-04-16 10:14:00,59.0,58.5,30.22,SW,232,1.0,3.0,98,0.00,,,0.02,318.0,meteohub,2013-04-16 14:14:00,
2013-04-16 10:19:00,59.4,58.8,30.22,SW,232,1.0,2.0,98,0.00,,,0.02,385.0,meteohub,2013-04-16 14:19:00,
2013-04-16 10:24:00,59.7,59.2,30.23,SW,215,1.0,3.0,98,0.00,,,0.02,271.0,meteohub,2013-04-16 14:24:00,
2013-04-16 10:29:00,59.7,59.2,30.23,SW,215,0.0,4.0,98,0.00,,,0.02,448.0,meteohub,2013-04-16 14:29:00,
2013-04-16 10:34:00,60.1,59.2,30.23,SW,219,1.0,4.0,97,0.00,,,0.02,603.0,meteohub,2013-04-16 14:34:00,
2013-04-16 10:39:00,60.8,59.9,30.22,SE,142,2.0,3.0,97,0.00,,,0.02,647.0,meteohub,2013-04-16 14:39:00,
2013-04-16 10:44:00,61.7,60.6,30.23,SSE,148,1.0,3.0,96,0.00,,,0.02,789.0,meteohub,2013-04-16 14:44:00,
2013-04-16 10:49:00,62.6,59.9,30.22,South,190,4.0,4.0,91,0.00,,,0.02,817.0,meteohub,2013-04-16 14:49:00,
2013-04-16 10:54:00,63.7,59.4,30.23,WNW,282,2.0,6.0,86,0.00,,,0.02,940.0,meteohub,2013-04-16 14:54:00,
2013-04-16 10:59:00,64.0,59.7,30.23,SW,215,0.0,6.0,86,0.00,,,0.02,271.0,meteohub,2013-04-16 14:59:00,
2013-04-16 11:04:00,64.6,61.0,30.23,South,171,3.0,6.0,88,0.00,,,0.02,352.0,meteohub,2013-04-16 15:04:00,
2013-04-16 11:09:00,64.8,60.4,30.23,SE,138,3.0,6.0,86,0.00,,,0.02,492.0,meteohub,2013-04-16 15:09:00,
2013-04-16 11:14:00,64.8,60.1,30.23,SE,141,2.0,6.0,85,0.00,,,0.02,285.0,meteohub,2013-04-16 15:14:00,
2013-04-16 11:20:00,64.8,60.8,30.23,SW,219,1.0,5.0,87,0.00,,,0.02,438.0,meteohub,2013-04-16 15:20:00,
2013-04-16 11:24:00,64.8,59.5,30.23,SW,218,0.0,6.0,83,0.00,,,0.02,294.0,meteohub,2013-04-16 15:24:00,
2013-04-16 11:30:00,64.9,59.9,30.23,SSE,155,3.0,6.0,84,0.00,,,0.02,408.0,meteohub,2013-04-16 15:30:00,
2013-04-16 11:35:00,65.1,60.1,30.23,SE,144,4.0,6.0,84,0.00,,,0.02,759.0,meteohub,2013-04-16 15:35:00,
2013-04-16 11:40:00,65.1,59.9,30.23,SSE,160,2.0,6.0,83,0.00,,,0.02,888.0,meteohub,2013-04-16 15:40:00,
2013-04-16 11:45:00,65.5,60.4,30.23,South,178,2.0,6.0,84,0.00,,,0.02,499.0,meteohub,2013-04-16 15:45:00,
2013-04-16 11:50:00,66.2,61.2,30.22,SW,221,2.0,6.0,84,0.00,,,0.02,947.0,meteohub,2013-04-16 15:50:00,
2013-04-16 11:55:00,66.6,61.2,30.22,SE,126,3.0,6.0,83,0.00,,,0.02,334.0,meteohub,2013-04-16 15:55:00,
2013-04-16 12:00:00,66.6,60.6,30.22,SSE,147,0.0,6.0,81,0.00,,,0.02,499.0,meteohub,2013-04-16 16:00:00,
2013-04-16 12:05:00,66.7,60.8,30.22,SW,215,2.0,5.0,81,0.00,,,0.02,283.0,meteohub,2013-04-16 16:05:00,
2013-04-16 12:10:00,66.4,59.7,30.22,SE,130,2.0,7.0,79,0.00,,,0.02,413.0,meteohub,2013-04-16 16:10:00,
2013-04-16 12:15:00,65.8,59.9,30.22,South,171,2.0,7.0,81,0.00,,,0.02,953.0,meteohub,2013-04-16 16:15:00,
2013-04-16 12:20:00,65.8,59.9,30.22,SW,214,1.0,7.0,81,0.00,,,0.02,316.0,meteohub,2013-04-16 16:20:00,
2013-04-16 12:25:00,66.0,60.4,30.22,ESE,103,4.0,7.0,82,0.00,,,0.02,209.0,meteohub,2013-04-16 16:25:00,
2013-04-16 12:30:00,65.7,59.4,30.22,SE,139,0.0,7.0,80,0.00,,,0.02,330.0,meteohub,2013-04-16 16:30:00,
2013-04-16 12:35:00,65.5,59.5,30.22,SSE,149,2.0,6.0,81,0.00,,,0.02,271.0,meteohub,2013-04-16 16:35:00,
2013-04-16 12:40:00,65.5,59.5,30.22,SE,141,3.0,5.0,81,0.00,,,0.02,316.0,meteohub,2013-04-16 16:40:00,
2013-04-16 12:45:00,65.8,60.6,30.21,SSW,202,2.0,6.0,83,0.00,,,0.02,965.0,meteohub,2013-04-16 16:45:00,
2013-04-16 12:50:00,66.7,60.4,30.21,East,94,0.0,6.0,80,0.00,,,0.02,965.0,meteohub,2013-04-16 16:50:00,
2013-04-16 12:55:00,67.3,60.3,30.21,South,186,4.0,8.0,78,0.00,,,0.02,390.0,meteohub,2013-04-16 16:55:00,
2013-04-16 13:00:00,67.3,60.3,30.21,South,172,2.0,8.0,78,0.00,,,0.02,271.0,meteohub,2013-04-16 17:00:00,
2013-04-16 13:05:00,67.5,59.5,30.20,SSW,198,2.0,8.0,76,0.00,,,0.02,350.0,meteohub,2013-04-16 17:05:00,
2013-04-16 13:10:00,67.8,59.5,30.20,South,173,0.0,6.0,75,0.00,,,0.02,884.0,meteohub,2013-04-16 17:10:00,
2013-04-16 13:16:00,68.4,61.2,30.20,West,259,3.0,6.0,78,0.00,,,0.02,937.0,meteohub,2013-04-16 17:16:00,
2013-04-16 13:21:00,69.3,61.7,30.20,SSE,154,2.0,8.0,77,0.00,,,0.02,976.0,meteohub,2013-04-16 17:21:00,
2013-04-16 13:26:00,69.6,61.3,30.20,WSW,245,3.0,10.0,75,0.00,,,0.02,949.0,meteohub,2013-04-16 17:26:00,
2013-04-16 13:31:00,70.2,61.2,30.20,South,176,6.0,10.0,73,0.00,,,0.02,928.0,meteohub,2013-04-16 17:31:00,
2013-04-16 13:36:00,70.9,61.0,30.19,SSE,155,4.0,10.0,71,0.00,,,0.02,960.0,meteohub,2013-04-16 17:36:00,
2013-04-16 13:41:00,71.2,61.3,30.19,SSW,208,3.0,7.0,71,0.00,,,0.02,1005.0,meteohub,2013-04-16 17:41:00,
2013-04-16 13:46:00,71.2,61.3,30.19,SSE,148,1.0,7.0,71,0.00,,,0.02,292.0,meteohub,2013-04-16 17:46:00,
2013-04-16 13:51:00,70.9,60.3,30.19,South,190,7.0,7.0,69,0.00,,,0.02,914.0,meteohub,2013-04-16 17:51:00,
2013-04-16 13:56:00,71.1,61.5,30.19,SSE,167,3.0,8.0,72,0.00,,,0.02,998.0,meteohub,2013-04-16 17:56:00,
2013-04-16 14:01:00,71.4,60.3,30.19,SSE,148,2.0,8.0,68,0.00,,,0.02,918.0,meteohub,2013-04-16 18:01:00,
2013-04-16 14:07:00,71.4,59.9,30.18,SW,235,2.0,8.0,67,0.00,,,0.02,325.0,meteohub,2013-04-16 18:07:00,
2013-04-16 14:12:00,71.1,59.9,30.18,SSW,200,2.0,7.0,68,0.00,,,0.02,889.0,meteohub,2013-04-16 18:12:00,
2013-04-16 14:17:00,71.6,60.1,30.18,ESE,122,4.0,5.0,67,0.00,,,0.02,1093.0,meteohub,2013-04-16 18:17:00,
2013-04-16 14:22:00,70.7,60.8,30.18,WSW,257,3.0,6.0,71,0.00,,,0.02,988.0,meteohub,2013-04-16 18:22:00,
2013-04-16 14:27:00,71.2,61.0,30.18,SE,124,3.0,6.0,70,0.00,,,0.02,376.0,meteohub,2013-04-16 18:27:00,
2013-04-16 14:32:00,71.4,60.8,30.18,SSW,200,1.0,6.0,69,0.00,,,0.02,1005.0,meteohub,2013-04-16 18:32:00,
2013-04-16 14:37:00,72.1,61.0,30.18,SW,227,3.0,7.0,68,0.00,,,0.02,928.0,meteohub,2013-04-16 18:37:00,
2013-04-16 14:42:00,72.5,61.0,30.18,SSE,153,2.0,7.0,67,0.00,,,0.02,1013.0,meteohub,2013-04-16 18:42:00,
2013-04-16 14:47:00,72.9,60.8,30.18,SSE,153,4.0,8.0,66,0.00,,,0.02,902.0,meteohub,2013-04-16 18:47:00,
2013-04-16 14:52:00,72.9,60.4,30.18,SSW,204,6.0,8.0,65,0.00,,,0.02,900.0,meteohub,2013-04-16 18:52:00,
2013-04-16 14:57:00,73.0,59.7,30.18,SSE,149,2.0,8.0,63,0.00,,,0.02,763.0,meteohub,2013-04-16 18:57:00,
2013-04-16 15:02:00,72.9,59.9,30.17,SSE,148,3.0,8.0,64,0.00,,,0.02,805.0,meteohub,2013-04-16 19:02:00,
2013-04-16 15:07:00,72.1,60.1,30.17,SSE,155,4.0,8.0,66,0.00,,,0.02,990.0,meteohub,2013-04-16 19:07:00,
2013-04-16 15:12:00,72.0,60.8,30.17,SSW,202,2.0,8.0,68,0.00,,,0.02,345.0,meteohub,2013-04-16 19:12:00,
2013-04-16 15:17:00,72.1,60.6,30.17,South,184,1.0,8.0,67,0.00,,,0.02,524.0,meteohub,2013-04-16 19:17:00,
2013-04-16 15:22:00,71.8,59.7,30.17,WSW,240,1.0,5.0,66,0.00,,,0.02,248.0,meteohub,2013-04-16 19:22:00,
2013-04-16 15:27:00,71.1,59.2,30.17,SW,232,3.0,6.0,66,0.00,,,0.02,287.0,meteohub,2013-04-16 19:27:00,
2013-04-16 15:32:00,70.5,59.0,30.17,SSW,211,1.0,7.0,67,0.00,,,0.02,315.0,meteohub,2013-04-16 19:32:00,
2013-04-16 15:37:00,70.9,60.6,30.17,South,170,3.0,7.0,70,0.00,,,0.02,1102.0,meteohub,2013-04-16 19:37:00,
2013-04-16 15:42:00,71.4,59.5,30.17,SE,144,2.0,5.0,66,0.00,,,0.02,947.0,meteohub,2013-04-16 19:42:00,
2013-04-16 15:47:00,72.1,59.7,30.17,SSE,148,4.0,6.0,65,0.00,,,0.02,629.0,meteohub,2013-04-16 19:47:00,
2013-04-16 15:52:00,72.1,59.7,30.17,SSW,201,2.0,6.0,65,0.00,,,0.02,926.0,meteohub,2013-04-16 19:52:00,
2013-04-16 15:57:00,72.1,59.7,30.16,East,94,2.0,7.0,65,0.00,,,0.02,446.0,meteohub,2013-04-16 19:57:00,
2013-04-16 16:02:00,72.3,59.5,30.17,SE,131,2.0,7.0,64,0.00,,,0.02,338.0,meteohub,2013-04-16 20:02:00,
2013-04-16 16:07:00,71.4,58.6,30.16,WSW,246,3.0,6.0,64,0.00,,,0.02,137.0,meteohub,2013-04-16 20:07:00,
2013-04-16 16:12:00,70.9,59.0,30.16,SE,141,0.0,6.0,66,0.00,,,0.02,374.0,meteohub,2013-04-16 20:12:00,
2013-04-16 16:17:00,70.5,59.0,30.16,SSW,196,1.0,8.0,67,0.00,,,0.02,397.0,meteohub,2013-04-16 20:17:00,
2013-04-16 16:22:00,70.3,58.5,30.16,SE,144,1.0,8.0,66,0.00,,,0.02,323.0,meteohub,2013-04-16 20:22:00,
2013-04-16 16:27:00,70.0,58.5,30.16,SSE,158,4.0,8.0,67,0.00,,,0.02,241.0,meteohub,2013-04-16 20:27:00,
2013-04-16 16:32:00,69.4,58.5,30.16,SW,221,4.0,7.0,68,0.00,,,0.02,225.0,meteohub,2013-04-16 20:32:00,
2013-04-16 16:37:00,69.3,59.0,30.15,SW,219,2.0,7.0,70,0.00,,,0.02,366.0,meteohub,2013-04-16 20:37:00,
2013-04-16 16:42:00,69.1,57.7,30.15,SSE,152,1.0,7.0,67,0.00,,,0.02,283.0,meteohub,2013-04-16 20:42:00,
2013-04-16 16:47:00,69.1,58.1,30.16,SSW,195,3.0,6.0,68,0.00,,,0.02,199.0,meteohub,2013-04-16 20:47:00,
2013-04-16 16:52:00,68.7,58.1,30.16,SE,140,0.0,5.0,69,0.00,,,0.02,229.0,meteohub,2013-04-16 20:52:00,
2013-04-16 16:57:00,68.5,57.6,30.15,SSW,209,2.0,5.0,68,0.00,,,0.02,243.0,meteohub,2013-04-16 20:57:00,
2013-04-16 17:02:00,68.5,58.3,30.15,SSW,211,2.0,6.0,70,0.00,,,0.02,234.0,meteohub,2013-04-16 21:02:00,
2013-04-16 17:08:00,68.5,58.3,30.15,SSW,202,4.0,7.0,70,0.00,,,0.02,373.0,meteohub,2013-04-16 21:08:00,
2013-04-16 17:13:00,68.7,58.5,30.15,SSE,152,1.0,7.0,70,0.00,,,0.02,209.0,meteohub,2013-04-16 21:13:00,
2013-04-16 17:18:00,69.1,58.1,30.15,SSW,197,3.0,6.0,68,0.00,,,0.02,643.0,meteohub,2013-04-16 21:18:00,
2013-04-16 17:23:00,69.4,57.9,30.15,SSW,211,2.0,9.0,67,0.00,,,0.02,241.0,meteohub,2013-04-16 21:23:00,
2013-04-16 17:28:00,69.4,57.9,30.16,South,184,1.0,9.0,67,0.00,,,0.02,197.0,meteohub,2013-04-16 21:28:00,
2013-04-16 17:33:00,69.3,58.3,30.16,SSE,155,2.0,9.0,68,0.00,,,0.02,174.0,meteohub,2013-04-16 21:33:00,
2013-04-16 17:38:00,69.1,58.5,30.16,SE,129,0.0,6.0,69,0.00,,,0.02,167.0,meteohub,2013-04-16 21:38:00,
2013-04-16 17:43:00,68.7,58.1,30.16,SSW,192,0.0,5.0,69,0.00,,,0.02,221.0,meteohub,2013-04-16 21:43:00,
2013-04-16 17:48:00,68.5,58.3,30.16,WSW,252,3.0,5.0,70,0.00,,,0.02,343.0,meteohub,2013-04-16 21:48:00,
2013-04-16 17:53:00,68.4,58.6,30.16,SE,141,1.0,7.0,71,0.00,,,0.02,214.0,meteohub,2013-04-16 21:53:00,
2013-04-16 17:58:00,68.2,58.1,30.15,SW,219,1.0,7.0,70,0.00,,,0.02,251.0,meteohub,2013-04-16 21:58:00,
2013-04-16 18:03:00,68.4,58.3,30.16,SSW,192,0.0,6.0,70,0.00,,,0.02,329.0,meteohub,2013-04-16 22:03:00,
2013-04-16 18:08:00,68.4,58.3,30.16,SSE,163,1.0,6.0,70,0.00,,,0.02,153.0,meteohub,2013-04-16 22:08:00,
2013-04-16 18:13:00,68.4,57.7,30.16,SSE,150,1.0,6.0,69,0.00,,,0.02,137.0,meteohub,2013-04-16 22:13:00,
2013-04-16 18:19:00,68.4,58.3,30.16,SSW,201,0.0,4.0,70,0.00,,,0.02,128.0,meteohub,2013-04-16 22:19:00,
2013-04-16 18:24:00,68.2,57.6,30.16,SE,144,2.0,5.0,69,0.00,,,0.02,162.0,meteohub,2013-04-16 22:24:00,
2013-04-16 18:29:00,67.8,57.7,30.16,SE,136,1.0,5.0,70,0.00,,,0.02,125.0,meteohub,2013-04-16 22:29:00,
2013-04-16 18:34:00,67.6,57.9,30.16,WSW,237,1.0,5.0,71,0.00,,,0.02,102.0,meteohub,2013-04-16 22:34:00,
2013-04-16 18:39:00,67.5,57.7,30.16,SSW,194,1.0,5.0,71,0.00,,,0.02,90.0,meteohub,2013-04-16 22:39:00,
2013-04-16 18:44:00,67.3,57.6,30.16,SE,144,2.0,5.0,71,0.00,,,0.02,118.0,meteohub,2013-04-16 22:44:00,
2013-04-16 18:49:00,67.1,58.1,30.16,SSE,167,0.0,5.0,73,0.00,,,0.02,139.0,meteohub,2013-04-16 22:49:00,
2013-04-16 18:54:00,67.1,57.7,30.15,WSW,238,3.0,5.0,72,0.00,,,0.02,91.0,meteohub,2013-04-16 22:54:00,
2013-04-16 18:59:00,66.9,57.2,30.15,SE,126,4.0,4.0,71,0.00,,,0.02,51.0,meteohub,2013-04-16 22:59:00,
2013-04-16 19:04:00,66.7,57.4,30.15,SSE,153,0.0,6.0,72,0.00,,,0.02,44.0,meteohub,2013-04-16 23:04:00,
2013-04-16 19:09:00,66.6,57.2,30.15,South,176,0.0,6.0,72,0.00,,,0.02,37.0,meteohub,2013-04-16 23:09:00,
2013-04-16 19:14:00,66.4,57.4,30.15,South,176,1.0,5.0,73,0.00,,,0.02,33.0,meteohub,2013-04-16 23:14:00,
2013-04-16 19:19:00,66.2,57.2,30.15,South,179,0.0,3.0,73,0.00,,,0.02,28.0,meteohub,2013-04-16 23:19:00,
2013-04-16 19:24:00,65.8,57.0,30.15,SSW,203,0.0,3.0,73,0.00,,,0.02,23.0,meteohub,2013-04-16 23:24:00,
2013-04-16 19:29:00,65.7,56.8,30.15,South,173,3.0,3.0,73,0.00,,,0.02,18.0,meteohub,2013-04-16 23:29:00,
2013-04-16 19:34:00,65.5,57.0,30.15,South,178,0.0,3.0,74,0.00,,,0.02,12.0,meteohub,2013-04-16 23:34:00,
2013-04-16 19:39:00,65.1,57.0,30.15,SSE,158,0.0,3.0,75,0.00,,,0.02,9.0,meteohub,2013-04-16 23:39:00,
2013-04-16 19:45:00,64.8,56.7,30.15,SSE,158,0.0,5.0,75,0.00,,,0.02,7.0,meteohub,2013-04-16 23:45:00,
2013-04-16 19:50:00,64.8,56.7,30.16,SSE,158,0.0,5.0,75,0.00,,,0.02,7.0,meteohub,2013-04-16 23:50:00,
2013-04-16 19:55:00,64.6,56.8,30.16,SSE,158,0.0,5.0,76,0.00,,,0.02,7.0,meteohub,2013-04-16 23:55:00,
2013-04-16 20:00:00,64.4,57.0,30.16,SSE,158,0.0,1.0,77,0.00,,,0.02,0.0,meteohub,2013-04-17 00:00:00,
2013-04-16 20:05:00,64.0,56.7,30.16,SSE,158,0.0,1.0,77,0.00,,,0.02,0.0,meteohub,2013-04-17 00:05:00,
2013-04-16 20:10:00,64.0,57.0,30.16,SSE,158,0.0,1.0,78,0.00,,,0.02,0.0,meteohub,2013-04-17 00:10:00,
2013-04-16 20:15:00,63.9,56.8,30.16,SSE,158,0.0,1.0,78,0.00,,,0.02,0.0,meteohub,2013-04-17 00:15:00,
2013-04-16 20:20:00,63.9,56.8,30.16,SSE,158,0.0,2.0,78,0.00,,,0.02,0.0,meteohub,2013-04-17 00:20:00,
2013-04-16 20:25:00,63.7,57.0,30.16,SSE,158,0.0,2.0,79,0.00,,,0.02,0.0,meteohub,2013-04-17 00:25:00,
2013-04-16 20:30:00,63.7,57.0,30.16,SSE,158,0.0,2.0,79,0.00,,,0.02,0.0,meteohub,2013-04-17 00:30:00,
2013-04-16 20:35:00,63.7,57.0,30.16,SSE,158,0.0,1.0,79,0.00,,,0.02,0.0,meteohub,2013-04-17 00:35:00,
2013-04-16 20:40:00,63.3,56.7,30.16,SSE,158,0.0,1.0,79,0.00,,,0.02,0.0,meteohub,2013-04-17 00:40:00,
2013-04-16 20:45:00,63.3,56.3,30.16,SSE,158,0.0,3.0,78,0.00,,,0.02,0.0,meteohub,2013-04-17 00:45:00,
2013-04-16 20:50:00,63.3,56.3,30.16,SSE,158,0.0,3.0,78,0.00,,,0.02,0.0,meteohub,2013-04-17 00:50:00,
2013-04-16 20:56:00,63.1,56.1,30.16,SSE,158,0.0,3.0,78,0.00,,,0.02,0.0,meteohub,2013-04-17 00:56:00,
2013-04-16 21:01:00,63.1,56.1,30.17,SSE,158,2.0,2.0,78,0.00,,,0.02,0.0,meteohub,2013-04-17 01:01:00,
2013-04-16 21:06:00,63.1,56.5,30.17,SSE,158,0.0,2.0,79,0.00,,,0.02,0.0,meteohub,2013-04-17 01:06:00,
2013-04-16 21:11:00,63.0,56.3,30.17,SSE,158,0.0,2.0,79,0.00,,,0.02,0.0,meteohub,2013-04-17 01:11:00,
2013-04-16 21:16:00,62.8,56.5,30.17,SSE,158,0.0,2.0,80,0.00,,,0.02,0.0,meteohub,2013-04-17 01:16:00,
2013-04-16 21:22:00,62.4,56.1,30.17,SSE,158,0.0,1.0,80,0.00,,,0.02,0.0,meteohub,2013-04-17 01:22:00,
2013-04-16 21:27:00,62.4,56.1,30.18,SSE,158,0.0,1.0,80,0.00,,,0.02,0.0,meteohub,2013-04-17 01:27:00,
2013-04-16 21:32:00,62.4,56.1,30.18,SSE,158,0.0,1.0,80,0.00,,,0.02,0.0,meteohub,2013-04-17 01:32:00,
2013-04-16 21:37:00,62.4,56.5,30.18,SSE,158,0.0,1.0,81,0.00,,,0.02,0.0,meteohub,2013-04-17 01:37:00,
2013-04-16 21:42:00,62.4,56.5,30.18,SSE,158,0.0,1.0,81,0.00,,,0.02,0.0,meteohub,2013-04-17 01:42:00,
2013-04-16 21:47:00,62.4,56.5,30.18,SSE,158,0.0,1.0,81,0.00,,,0.02,0.0,meteohub,2013-04-17 01:47:00,
2013-04-16 21:52:00,62.4,56.5,30.18,SSE,158,0.0,0.0,81,0.00,,,0.02,0.0,meteohub,2013-04-17 01:52:00,
2013-04-16 21:57:00,62.2,56.7,30.18,SSE,158,0.0,0.0,82,0.00,,,0.02,0.0,meteohub,2013-04-17 01:57:00,
2013-04-16 22:02:00,62.2,56.3,30.18,SSE,158,0.0,0.0,81,0.00,,,0.02,0.0,meteohub,2013-04-17 02:02:00,
2013-04-16 22:07:00,62.2,56.3,30.18,SSE,158,0.0,0.0,81,0.00,,,0.02,0.0,meteohub,2013-04-17 02:07:00,
2013-04-16 22:12:00,62.2,56.3,30.18,SSE,158,0.0,0.0,81,0.00,,,0.02,0.0,meteohub,2013-04-17 02:12:00,
2013-04-16 22:17:00,62.2,56.3,30.19,SSE,158,0.0,0.0,81,0.00,,,0.02,0.0,meteohub,2013-04-17 02:17:00,
2013-04-16 22:22:00,62.1,56.1,30.19,SSE,158,0.0,0.0,81,0.00,,,0.02,0.0,meteohub,2013-04-17 02:22:00,
2013-04-16 22:27:00,62.2,56.3,30.19,SSE,158,0.0,1.0,81,0.00,,,0.02,0.0,meteohub,2013-04-17 02:27:00,
2013-04-16 22:32:00,62.2,56.3,30.19,SSE,158,0.0,1.0,81,0.00,,,0.02,0.0,meteohub,2013-04-17 02:32:00,
2013-04-16 22:38:00,62.2,56.3,30.18,SSE,158,0.0,1.0,81,0.00,,,0.02,0.0,meteohub,2013-04-17 02:38:00,
2013-04-16 22:43:00,62.2,55.9,30.18,SSE,158,0.0,1.0,80,0.00,,,0.02,0.0,meteohub,2013-04-17 02:43:00,
2013-04-16 22:48:00,62.2,55.9,30.18,SSE,158,0.0,0.0,80,0.00,,,0.02,0.0,meteohub,2013-04-17 02:48:00,
2013-04-16 22:53:00,62.2,55.9,30.18,SSE,158,0.0,0.0,80,0.00,,,0.02,0.0,meteohub,2013-04-17 02:53:00,
2013-04-16 22:58:00,62.2,55.9,30.18,SSE,158,0.0,0.0,80,0.00,,,0.02,0.0,meteohub,2013-04-17 02:58:00,
2013-04-16 23:03:00,62.2,55.9,30.18,SSE,158,0.0,0.0,80,0.00,,,0.02,0.0,meteohub,2013-04-17 03:03:00,
2013-04-16 23:08:00,62.2,55.9,30.18,SSE,158,0.0,0.0,80,0.00,,,0.02,0.0,meteohub,2013-04-17 03:08:00,
2013-04-16 23:13:00,62.2,55.9,30.18,SSE,158,0.0,0.0,80,0.00,,,0.02,0.0,meteohub,2013-04-17 03:13:00,
2013-04-16 23:18:00,62.2,55.9,30.18,SSE,158,0.0,0.0,80,0.00,,,0.02,0.0,meteohub,2013-04-17 03:18:00,
2013-04-16 23:23:00,62.2,55.9,30.17,SSE,158,0.0,1.0,80,0.00,,,0.02,0.0,meteohub,2013-04-17 03:23:00,
2013-04-16 23:28:00,62.2,55.9,30.17,SSE,158,0.0,1.0,80,0.00,,,0.02,0.0,meteohub,2013-04-17 03:28:00,
2013-04-16 23:33:00,62.2,55.9,30.17,SSE,158,0.0,0.0,80,0.00,,,0.02,0.0,meteohub,2013-04-17 03:33:00,
2013-04-16 23:38:00,62.2,55.9,30.17,SSE,158,0.0,0.0,80,0.00,,,0.02,0.0,meteohub,2013-04-17 03:38:00,
2013-04-16 23:43:00,62.2,55.9,30.17,SSE,158,0.0,0.0,80,0.00,,,0.02,0.0,meteohub,2013-04-17 03:43:00,
2013-04-16 23:48:00,62.2,55.9,30.17,SSE,158,0.0,1.0,80,0.00,,,0.02,0.0,meteohub,2013-04-17 03:48:00,
2013-04-16 23:53:00,62.2,55.9,30.17,SSE,158,0.0,1.0,80,0.00,,,0.02,0.0,meteohub,2013-04-17 03:53:00,
2013-04-16 23:58:00,62.2,55.9,30.17,SSE,158,0.0,1.0,80,0.00,,,0.02,0.0,meteohub,2013-04-17 03:58:00,